Time,TemperatureF,DewpointF,PressureIn,WindDirection,WindDirectionDegrees,WindSpeedMPH,WindSpeedGustMPH,Humidity,HourlyPrecipIn,Conditions,Clouds,dailyrainin,SoftwareType,DateUTC
2013-09-29 00:00:00,48.3,46.9,30.28,NW,306,0.0,0.0,95,0.00,,---,0.00,VWS V14.01,2013-09-29 04:00:00,
2013-09-29 00:05:00,48.2,47.9,30.28,NW,306,0.0,0.0,99,0.00,,---,0.00,VWS V14.01,2013-09-29 04:05:00,
2013-09-29 00:10:00,48.0,46.6,30.28,NW,306,0.0,0.0,95,0.00,,---,0.00,VWS V14.01,2013-09-29 04:10:00,
2013-09-29 00:15:00,47.8,46.4,30.28,NW,306,0.0,0.0,95,0.00,,---,0.00,VWS V14.01,2013-09-29 04:15:00,
2013-09-29 00:20:00,47.7,46.3,30.27,NW,306,0.0,0.0,95,0.00,,---,0.00,VWS V14.01,2013-09-29 04:20:00,
2013-09-29 00:25:00,47.6,46.2,30.27,NW,306,0.0,0.0,95,0.00,,---,0.00,VWS V14.01,2013-09-29 04:25:00,
2013-09-29 00:30:00,47.4,46.0,30.27,NW,306,0.0,0.0,95,0.00,,---,0.00,VWS V14.01,2013-09-29 04:30:00,
2013-09-29 00:35:00,47.4,46.0,30.27,NW,306,0.0,0.0,95,0.00,,---,0.00,VWS V14.01,2013-09-29 04:35:00,
2013-09-29 00:40:00,47.3,45.9,30.27,NW,306,0.0,0.0,95,0.00,,---,0.00,VWS V14.01,2013-09-29 04:40:00,
2013-09-29 00:45:00,47.2,45.8,30.27,NW,306,0.0,0.0,95,0.00,,---,0.00,VWS V14.01,2013-09-29 04:45:00,
2013-09-29 00:50:00,47.0,45.7,30.27,NW,306,0.0,0.0,95,0.00,,---,0.00,VWS V14.01,2013-09-29 04:50:00,
2013-09-29 00:55:00,46.8,45.5,30.27,NW,306,0.0,0.0,95,0.00,,---,0.00,VWS V14.01,2013-09-29 04:55:00,
2013-09-29 01:00:00,46.5,45.2,30.27,NW,306,0.0,0.0,95,0.00,,---,0.00,VWS V14.01,2013-09-29 05:00:00,
2013-09-29 01:05:00,46.3,45.0,30.27,NW,306,0.0,0.0,95,0.00,,---,0.00,VWS V14.01,2013-09-29 05:05:00,
2013-09-29 01:10:00,46.2,44.8,30.27,NW,306,0.0,0.0,95,0.00,,---,0.00,VWS V14.01,2013-09-29 05:10:00,
2013-09-29 01:15:00,46.1,44.8,30.27,NW,306,0.0,0.0,95,0.00,,---,0.00,VWS V14.01,2013-09-29 05:15:00,
2013-09-29 01:20:00,45.9,44.5,30.27,NW,306,0.0,0.0,95,0.00,,---,0.00,VWS V14.01,2013-09-29 05:20:00,
2013-09-29 01:25:00,45.8,44.5,30.27,NW,306,0.0,0.0,95,0.00,,---,0.00,VWS V14.01,2013-09-29 05:25:00,
2013-09-29 01:30:00,45.8,44.5,30.27,NW,306,0.0,0.0,95,0.00,,---,0.00,VWS V14.01,2013-09-29 05:30:00,
2013-09-29 01:35:00,45.6,44.2,30.27,NW,306,0.0,0.0,95,0.00,,---,0.00,VWS V14.01,2013-09-29 05:35:00,
2013-09-29 01:40:00,45.6,44.2,30.27,NW,306,0.0,0.0,95,0.00,,---,0.00,VWS V14.01,2013-09-29 05:40:00,
2013-09-29 01:45:00,45.5,44.2,30.27,NW,306,0.0,0.0,95,0.00,,---,0.00,VWS V14.01,2013-09-29 05:45:00,
2013-09-29 01:50:00,45.4,44.0,30.27,NW,306,0.0,0.0,95,0.00,,---,0.00,VWS V14.01,2013-09-29 05:50:00,
2013-09-29 01:55:00,45.3,44.0,30.26,NW,306,0.0,0.0,95,0.00,,---,0.00,VWS V14.01,2013-09-29 05:55:00,
2013-09-29 02:00:00,45.2,44.1,30.26,NW,306,0.0,0.0,96,0.00,,---,0.00,VWS V14.01,2013-09-29 06:00:00,
2013-09-29 02:05:00,45.2,43.9,30.26,NW,306,0.0,0.0,95,0.00,,---,0.00,VWS V14.01,2013-09-29 06:05:00,
2013-09-29 02:10:00,45.0,43.7,30.26,NW,306,0.0,0.0,95,0.00,,---,0.00,VWS V14.01,2013-09-29 06:10:00,
2013-09-29 02:15:00,44.9,43.6,30.26,NW,306,0.0,0.0,95,0.00,,---,0.00,VWS V14.01,2013-09-29 06:15:00,
2013-09-29 02:20:00,44.7,43.4,30.26,NW,306,0.0,0.0,95,0.00,,---,0.00,VWS V14.01,2013-09-29 06:20:00,
2013-09-29 02:25:00,44.6,43.3,30.26,NW,306,0.0,0.0,95,0.00,,---,0.00,VWS V14.01,2013-09-29 06:25:00,
2013-09-29 02:30:00,44.5,43.2,30.26,NW,306,0.0,0.0,95,0.00,,---,0.00,VWS V14.01,2013-09-29 06:30:00,
2013-09-29 02:35:00,44.4,43.1,30.26,NW,306,0.0,0.0,95,0.00,,---,0.00,VWS V14.01,2013-09-29 06:35:00,
2013-09-29 02:40:00,44.2,43.1,30.25,NW,306,0.0,0.0,96,0.00,,---,0.00,VWS V14.01,2013-09-29 06:40:00,
2013-09-29 02:45:00,44.1,43.0,30.25,NW,306,0.0,0.0,96,0.00,,---,0.00,VWS V14.01,2013-09-29 06:45:00,
2013-09-29 02:50:00,44.0,42.7,30.25,NW,306,0.0,0.0,95,0.00,,---,0.00,VWS V14.01,2013-09-29 06:50:00,
2013-09-29 02:55:00,43.9,42.6,30.25,NW,306,0.0,0.0,95,0.00,,---,0.00,VWS V14.01,2013-09-29 06:55:00,
2013-09-29 03:00:00,43.8,42.7,30.25,NW,306,0.0,0.0,96,0.00,,---,0.00,VWS V14.01,2013-09-29 07:00:00,
2013-09-29 03:05:00,43.7,42.6,30.25,NW,306,0.0,0.0,96,0.00,,---,0.00,VWS V14.01,2013-09-29 07:05:00,
2013-09-29 03:10:00,43.6,42.5,30.25,NW,306,0.0,0.0,96,0.00,,---,0.00,VWS V14.01,2013-09-29 07:10:00,
2013-09-29 03:15:00,43.4,42.1,30.25,NW,306,0.0,0.0,95,0.00,,---,0.00,VWS V14.01,2013-09-29 07:15:00,
2013-09-29 03:20:00,43.4,42.3,30.25,NW,306,0.0,0.0,96,0.00,,---,0.00,VWS V14.01,2013-09-29 07:20:00,
2013-09-29 03:25:00,43.3,42.2,30.25,NW,306,0.0,0.0,96,0.00,,---,0.00,VWS V14.01,2013-09-29 07:25:00,
2013-09-29 03:30:00,43.2,42.1,30.24,NW,306,0.0,0.0,96,0.00,,---,0.00,VWS V14.01,2013-09-29 07:30:00,
2013-09-29 03:35:00,43.3,42.2,30.24,NW,306,0.0,0.0,96,0.00,,---,0.00,VWS V14.01,2013-09-29 07:35:00,
2013-09-29 03:40:00,43.3,42.2,30.24,NW,306,0.0,0.0,96,0.00,,---,0.00,VWS V14.01,2013-09-29 07:40:00,
2013-09-29 03:45:00,43.4,42.3,30.24,NW,306,0.0,0.0,96,0.00,,---,0.00,VWS V14.01,2013-09-29 07:45:00,
2013-09-29 03:50:00,43.4,42.3,30.24,NW,306,0.0,0.0,96,0.00,,---,0.00,VWS V14.01,2013-09-29 07:50:00,
2013-09-29 03:55:00,43.4,42.3,30.24,NW,306,0.0,0.0,96,0.00,,---,0.00,VWS V14.01,2013-09-29 07:55:00,
2013-09-29 04:00:00,43.6,42.5,30.24,NW,306,0.0,0.0,96,0.00,,---,0.00,VWS V14.01,2013-09-29 08:00:00,
2013-09-29 04:05:00,43.5,42.4,30.25,NW,306,0.0,0.0,96,0.00,,---,0.00,VWS V14.01,2013-09-29 08:05:00,
2013-09-29 04:10:00,43.5,42.4,30.24,NW,307,0.0,0.0,96,0.00,,---,0.00,VWS V14.01,2013-09-29 08:10:00,
2013-09-29 04:15:00,43.4,42.3,30.24,NW,306,0.0,0.0,96,0.00,,---,0.00,VWS V14.01,2013-09-29 08:15:00,
2013-09-29 04:20:00,43.3,42.2,30.25,NW,306,0.0,0.0,96,0.00,,---,0.00,VWS V14.01,2013-09-29 08:20:00,
2013-09-29 04:25:00,43.2,42.1,30.25,NW,306,0.0,0.0,96,0.00,,---,0.00,VWS V14.01,2013-09-29 08:25:00,
2013-09-29 04:30:00,43.2,42.1,30.24,NW,306,0.0,0.0,96,0.00,,---,0.00,VWS V14.01,2013-09-29 08:30:00,
2013-09-29 04:35:00,43.0,41.9,30.24,NW,307,0.0,0.0,96,0.00,,---,0.00,VWS V14.01,2013-09-29 08:35:00,
2013-09-29 04:40:00,42.9,41.8,30.24,NW,306,0.0,0.0,96,0.00,,---,0.00,VWS V14.01,2013-09-29 08:40:00,
2013-09-29 04:45:00,42.9,41.8,30.24,NW,306,0.0,0.0,96,0.00,,---,0.00,VWS V14.01,2013-09-29 08:45:00,
2013-09-29 04:50:00,42.8,41.7,30.24,NW,306,0.0,0.0,96,0.00,,---,0.00,VWS V14.01,2013-09-29 08:50:00,
2013-09-29 04:55:00,43.0,42.2,30.24,NW,306,0.0,0.0,97,0.00,,---,0.00,VWS V14.01,2013-09-29 08:55:00,
2013-09-29 05:00:00,43.2,42.4,30.24,NW,306,0.0,0.0,97,0.00,,---,0.00,VWS V14.01,2013-09-29 09:00:00,
2013-09-29 05:05:00,43.6,42.8,30.24,NW,306,0.0,0.0,97,0.00,,---,0.00,VWS V14.01,2013-09-29 09:05:00,
2013-09-29 05:10:00,43.8,43.0,30.24,NW,306,0.0,0.0,97,0.00,,---,0.00,VWS V14.01,2013-09-29 09:10:00,
2013-09-29 05:15:00,44.1,43.3,30.24,NW,307,0.0,0.0,97,0.00,,---,0.00,VWS V14.01,2013-09-29 09:15:00,
2013-09-29 05:20:00,44.3,43.5,30.24,NW,306,0.0,0.0,97,0.00,,---,0.00,VWS V14.01,2013-09-29 09:20:00,
2013-09-29 05:25:00,44.3,43.5,30.24,NW,306,0.0,0.0,97,0.00,,---,0.00,VWS V14.01,2013-09-29 09:25:00,
2013-09-29 05:30:00,44.5,43.7,30.24,NW,306,0.0,0.0,97,0.00,,---,0.00,VWS V14.01,2013-09-29 09:30:00,
2013-09-29 05:35:00,44.5,43.7,30.24,NW,307,0.0,0.0,97,0.00,,---,0.00,VWS V14.01,2013-09-29 09:35:00,
2013-09-29 05:40:00,44.6,43.8,30.24,NW,306,0.0,0.0,97,0.00,,---,0.00,VWS V14.01,2013-09-29 09:40:00,
2013-09-29 05:45:00,44.7,43.9,30.24,NW,307,0.0,1.0,97,0.00,,---,0.00,VWS V14.01,2013-09-29 09:45:00,
2013-09-29 05:50:00,44.6,43.8,30.24,NW,307,0.0,0.0,97,0.00,,---,0.00,VWS V14.01,2013-09-29 09:50:00,
2013-09-29 05:55:00,44.7,43.9,30.25,NW,307,0.0,1.0,97,0.00,,---,0.00,VWS V14.01,2013-09-29 09:55:00,
2013-09-29 06:00:00,44.6,43.8,30.25,NW,307,0.0,0.0,97,0.00,,---,0.00,VWS V14.01,2013-09-29 10:00:00,
2013-09-29 06:05:00,44.6,43.8,30.25,NW,306,0.0,0.0,97,0.00,,---,0.00,VWS V14.01,2013-09-29 10:05:00,
2013-09-29 06:10:00,44.5,43.7,30.24,NW,306,0.0,0.0,97,0.00,,---,0.00,VWS V14.01,2013-09-29 10:10:00,
2013-09-29 06:15:00,44.5,43.7,30.25,NW,307,0.0,0.0,97,0.00,,---,0.00,VWS V14.01,2013-09-29 10:15:00,
2013-09-29 06:20:00,44.5,43.7,30.25,NW,307,0.0,0.0,97,0.00,,---,0.00,VWS V14.01,2013-09-29 10:20:00,
2013-09-29 06:25:00,44.6,43.8,30.25,NW,307,0.0,0.0,97,0.00,,---,0.00,VWS V14.01,2013-09-29 10:25:00,
2013-09-29 06:30:00,44.7,43.9,30.24,NW,306,0.0,1.0,97,0.00,,---,0.00,VWS V14.01,2013-09-29 10:30:00,
2013-09-29 06:35:00,44.7,43.9,30.25,NW,307,0.0,0.0,97,0.00,,---,0.00,VWS V14.01,2013-09-29 10:35:00,
2013-09-29 06:40:00,44.6,43.8,30.25,NW,307,0.0,0.0,97,0.00,,---,0.00,VWS V14.01,2013-09-29 10:40:00,
2013-09-29 06:45:00,44.5,43.7,30.25,NW,307,0.0,0.0,97,0.00,,---,0.00,VWS V14.01,2013-09-29 10:45:00,
2013-09-29 06:50:00,44.5,43.7,30.25,NW,307,0.0,0.0,97,0.00,,---,0.00,VWS V14.01,2013-09-29 10:50:00,
2013-09-29 06:55:00,44.6,43.8,30.25,NW,307,0.0,0.0,97,0.00,,---,0.00,VWS V14.01,2013-09-29 10:55:00,
2013-09-29 07:00:00,44.7,43.9,30.25,NW,306,0.0,0.0,97,0.00,,---,0.00,VWS V14.01,2013-09-29 11:00:00,
2013-09-29 07:05:00,44.7,43.9,30.25,NW,307,0.0,0.0,97,0.00,,---,0.00,VWS V14.01,2013-09-29 11:05:00,
2013-09-29 07:10:00,44.9,44.1,30.25,NW,306,0.0,0.0,97,0.00,,---,0.00,VWS V14.01,2013-09-29 11:10:00,
2013-09-29 07:15:00,45.0,44.2,30.25,NW,307,0.0,1.0,97,0.00,,---,0.00,VWS V14.01,2013-09-29 11:15:00,
2013-09-29 07:20:00,45.0,44.2,30.25,NW,306,1.0,1.0,97,0.00,,---,0.00,VWS V14.01,2013-09-29 11:20:00,
2013-09-29 07:25:00,45.0,44.2,30.25,NW,306,0.0,1.0,97,0.00,,---,0.00,VWS V14.01,2013-09-29 11:25:00,
2013-09-29 07:30:00,45.1,44.3,30.25,NW,307,0.0,0.0,97,0.00,,---,0.00,VWS V14.01,2013-09-29 11:30:00,
2013-09-29 07:35:00,45.2,44.4,30.25,NW,307,0.0,0.0,97,0.00,,---,0.00,VWS V14.01,2013-09-29 11:35:00,
2013-09-29 07:40:00,45.4,44.6,30.25,NW,307,0.0,0.0,97,0.00,,---,0.00,VWS V14.01,2013-09-29 11:40:00,
2013-09-29 07:45:00,45.4,44.6,30.25,NW,307,0.0,0.0,97,0.00,,---,0.00,VWS V14.01,2013-09-29 11:45:00,
2013-09-29 07:50:00,45.5,44.7,30.25,NW,306,0.0,0.0,97,0.00,,---,0.00,VWS V14.01,2013-09-29 11:50:00,
2013-09-29 07:55:00,45.8,45.0,30.25,NW,306,0.0,0.0,97,0.00,,---,0.00,VWS V14.01,2013-09-29 11:55:00,
2013-09-29 08:00:00,46.2,45.4,30.24,NW,307,0.0,0.0,97,0.00,,---,0.00,VWS V14.01,2013-09-29 12:00:00,
2013-09-29 08:05:00,46.5,45.7,30.25,NW,306,0.0,0.0,97,0.00,,---,0.00,VWS V14.01,2013-09-29 12:05:00,
2013-09-29 08:10:00,46.9,46.4,30.24,NW,307,0.0,0.0,98,0.00,,---,0.00,VWS V14.01,2013-09-29 12:10:00,
2013-09-29 08:15:00,47.3,46.5,30.24,NW,306,0.0,0.0,97,0.00,,---,0.00,VWS V14.01,2013-09-29 12:15:00,
2013-09-29 08:20:00,47.6,47.1,30.24,NW,306,0.0,0.0,98,0.00,,---,0.00,VWS V14.01,2013-09-29 12:20:00,
2013-09-29 08:25:00,47.9,47.4,30.24,NW,307,0.0,1.0,98,0.00,,---,0.00,VWS V14.01,2013-09-29 12:25:00,
2013-09-29 08:30:00,48.3,47.8,30.24,NW,307,0.0,0.0,98,0.00,,---,0.00,VWS V14.01,2013-09-29 12:30:00,
2013-09-29 08:35:00,48.7,48.2,30.25,NW,307,0.0,0.0,98,0.00,,---,0.00,VWS V14.01,2013-09-29 12:35:00,
2013-09-29 08:40:00,48.9,48.4,30.25,NW,307,0.0,0.0,98,0.00,,---,0.00,VWS V14.01,2013-09-29 12:40:00,
2013-09-29 08:45:00,49.3,48.8,30.25,WNW,284,0.0,1.0,98,0.00,,---,0.00,VWS V14.01,2013-09-29 12:45:00,
2013-09-29 08:50:00,49.6,49.1,30.25,WNW,284,0.0,0.0,98,0.00,,---,0.00,VWS V14.01,2013-09-29 12:50:00,
2013-09-29 08:55:00,49.6,49.1,30.25,WNW,284,0.0,2.0,98,0.00,,---,0.00,VWS V14.01,2013-09-29 12:55:00,
2013-09-29 09:00:00,49.6,49.1,30.25,WNW,284,0.0,0.0,98,0.00,,---,0.00,VWS V14.01,2013-09-29 13:00:00,
2013-09-29 09:05:00,49.8,49.3,30.26,WNW,284,0.0,0.0,98,0.00,,---,0.00,VWS V14.01,2013-09-29 13:05:00,
2013-09-29 09:10:00,50.1,49.6,30.26,WNW,284,0.0,1.0,98,0.00,,---,0.00,VWS V14.01,2013-09-29 13:10:00,
2013-09-29 09:15:00,50.3,49.8,30.26,WNW,284,0.0,1.0,98,0.00,,---,0.00,VWS V14.01,2013-09-29 13:15:00,
2013-09-29 09:20:00,50.6,50.1,30.26,WNW,284,0.0,1.0,98,0.00,,---,0.00,VWS V14.01,2013-09-29 13:20:00,
2013-09-29 09:25:00,51.1,50.6,30.26,WNW,284,0.0,0.0,98,0.00,,---,0.00,VWS V14.01,2013-09-29 13:25:00,
2013-09-29 09:30:00,51.4,50.9,30.26,WNW,284,0.0,0.0,98,0.00,,---,0.00,VWS V14.01,2013-09-29 13:30:00,
2013-09-29 09:35:00,51.4,50.9,30.26,WNW,284,0.0,1.0,98,0.00,,---,0.00,VWS V14.01,2013-09-29 13:35:00,
2013-09-29 09:40:00,51.4,50.9,30.26,WNW,284,0.0,1.0,98,0.00,,---,0.00,VWS V14.01,2013-09-29 13:40:00,
2013-09-29 09:45:00,51.7,51.2,30.26,WNW,284,0.0,1.0,98,0.00,,---,0.00,VWS V14.01,2013-09-29 13:45:00,
2013-09-29 09:50:00,51.8,51.3,30.25,WNW,284,0.0,1.0,98,0.00,,---,0.00,VWS V14.01,2013-09-29 13:50:00,
2013-09-29 09:55:00,51.9,51.4,30.25,WNW,284,0.0,1.0,98,0.00,,---,0.00,VWS V14.01,2013-09-29 13:55:00,
2013-09-29 10:00:00,52.1,51.5,30.25,WNW,284,0.0,2.0,98,0.00,,---,0.00,VWS V14.01,2013-09-29 14:00:00,
2013-09-29 10:05:00,52.1,51.5,30.26,WNW,284,0.0,2.0,98,0.00,,---,0.00,VWS V14.01,2013-09-29 14:05:00,
2013-09-29 10:10:00,52.2,51.7,30.26,WNW,284,0.0,2.0,98,0.00,,---,0.00,VWS V14.01,2013-09-29 14:10:00,
2013-09-29 10:15:00,52.6,52.0,30.26,WNW,284,0.0,1.0,98,0.00,,---,0.00,VWS V14.01,2013-09-29 14:15:00,
2013-09-29 10:20:00,53.2,52.7,30.26,WNW,284,0.0,2.0,98,0.00,,---,0.00,VWS V14.01,2013-09-29 14:20:00,
2013-09-29 10:25:00,53.7,53.2,30.26,WNW,284,0.0,1.0,98,0.00,,---,0.00,VWS V14.01,2013-09-29 14:25:00,
2013-09-29 10:30:00,54.2,53.7,30.25,WNW,284,0.0,1.0,98,0.00,,---,0.00,VWS V14.01,2013-09-29 14:30:00,
2013-09-29 10:35:00,54.5,54.0,30.25,WNW,284,0.0,2.0,98,0.00,,---,0.00,VWS V14.01,2013-09-29 14:35:00,
2013-09-29 10:40:00,54.8,54.2,30.25,WNW,284,1.0,1.0,98,0.00,,---,0.00,VWS V14.01,2013-09-29 14:40:00,
2013-09-29 10:45:00,55.3,54.5,30.25,WNW,284,1.0,2.0,97,0.00,,---,0.00,VWS V14.01,2013-09-29 14:45:00,
2013-09-29 10:50:00,55.4,54.0,30.25,WNW,284,0.0,3.0,95,0.00,,---,0.00,VWS V14.01,2013-09-29 14:50:00,
2013-09-29 10:55:00,55.8,53.8,30.24,WNW,284,1.0,3.0,93,0.00,,---,0.00,VWS V14.01,2013-09-29 14:55:00,
2013-09-29 11:00:00,56.5,54.2,30.24,WNW,282,0.0,2.0,92,0.00,,---,0.00,VWS V14.01,2013-09-29 15:00:00,
2013-09-29 11:05:00,57.3,53.5,30.24,NNE,25,0.0,4.0,87,0.00,,---,0.00,VWS V14.01,2013-09-29 15:05:00,
2013-09-29 11:10:00,58.2,53.7,30.24,NNE,30,0.0,1.0,85,0.00,,---,0.00,VWS V14.01,2013-09-29 15:10:00,
2013-09-29 11:15:00,59.1,54.3,30.24,ENE,65,0.0,3.0,84,0.00,,---,0.00,VWS V14.01,2013-09-29 15:15:00,
2013-09-29 11:20:00,60.0,53.8,30.23,NE,55,1.0,2.0,80,0.00,,---,0.00,VWS V14.01,2013-09-29 15:20:00,
2013-09-29 11:25:00,60.8,52.8,30.23,SE,136,1.0,5.0,75,0.00,,---,0.00,VWS V14.01,2013-09-29 15:25:00,
2013-09-29 11:30:00,61.4,53.8,30.23,NE,48,1.0,2.0,76,0.00,,---,0.00,VWS V14.01,2013-09-29 15:30:00,
2013-09-29 11:35:00,62.1,53.3,30.22,NNW,335,1.0,2.0,73,0.00,,---,0.00,VWS V14.01,2013-09-29 15:35:00,
2013-09-29 11:40:00,62.6,52.7,30.22,NNE,14,2.0,3.0,70,0.00,,---,0.00,VWS V14.01,2013-09-29 15:40:00,
2013-09-29 11:45:00,62.9,53.8,30.22,SSE,165,0.0,3.0,72,0.00,,---,0.00,VWS V14.01,2013-09-29 15:45:00,
2013-09-29 11:50:00,63.2,53.7,30.22,South,189,2.0,5.0,71,0.00,,---,0.00,VWS V14.01,2013-09-29 15:50:00,
2013-09-29 11:55:00,63.1,51.2,30.21,NNE,23,0.0,3.0,65,0.00,,---,0.00,VWS V14.01,2013-09-29 15:55:00,
2013-09-29 12:00:00,63.6,53.3,30.22,NNE,23,2.0,2.0,69,0.00,,---,0.00,VWS V14.01,2013-09-29 16:00:00,
2013-09-29 12:05:00,64.0,52.0,30.21,NE,40,3.0,4.0,65,0.00,,---,0.00,VWS V14.01,2013-09-29 16:05:00,
2013-09-29 12:10:00,64.3,49.7,30.21,SE,135,0.0,4.0,59,0.00,,---,0.00,VWS V14.01,2013-09-29 16:10:00,
2013-09-29 12:15:00,64.7,50.5,30.21,SE,138,2.0,2.0,60,0.00,,---,0.00,VWS V14.01,2013-09-29 16:15:00,
2013-09-29 12:20:00,65.2,51.4,30.21,SE,138,0.0,2.0,61,0.00,,---,0.00,VWS V14.01,2013-09-29 16:20:00,
2013-09-29 12:25:00,65.2,51.4,30.21,NW,312,1.0,3.0,61,0.00,,---,0.00,VWS V14.01,2013-09-29 16:25:00,
2013-09-29 12:30:00,65.4,48.8,30.21,NNE,13,0.0,2.0,55,0.00,,---,0.00,VWS V14.01,2013-09-29 16:30:00,
2013-09-29 12:35:00,65.9,51.2,30.21,NNE,15,1.0,1.0,59,0.00,,---,0.00,VWS V14.01,2013-09-29 16:35:00,
2013-09-29 12:40:00,66.2,48.6,30.21,South,171,0.0,2.0,53,0.00,,---,0.00,VWS V14.01,2013-09-29 16:40:00,
2013-09-29 12:45:00,66.0,50.8,30.21,NE,40,0.0,3.0,58,0.00,,---,0.00,VWS V14.01,2013-09-29 16:45:00,
2013-09-29 12:50:00,66.3,51.6,30.21,ENE,61,1.0,4.0,59,0.00,,---,0.00,VWS V14.01,2013-09-29 16:50:00,
2013-09-29 12:55:00,66.2,51.5,30.21,West,270,0.0,4.0,59,0.00,,---,0.00,VWS V14.01,2013-09-29 16:55:00,
2013-09-29 13:00:00,66.3,51.1,30.21,South,173,0.0,4.0,58,0.00,,---,0.00,VWS V14.01,2013-09-29 17:00:00,
2013-09-29 13:05:00,66.5,50.3,30.20,ENE,69,1.0,3.0,56,0.00,,---,0.00,VWS V14.01,2013-09-29 17:05:00,
2013-09-29 13:10:00,66.5,49.4,30.20,ENE,65,1.0,2.0,54,0.00,,---,0.00,VWS V14.01,2013-09-29 17:10:00,
2013-09-29 13:15:00,66.7,49.5,30.20,South,181,0.0,2.0,54,0.00,,---,0.00,VWS V14.01,2013-09-29 17:15:00,
2013-09-29 13:20:00,67.1,47.9,30.20,SSE,154,0.0,2.0,50,0.00,,---,0.00,VWS V14.01,2013-09-29 17:20:00,
2013-09-29 13:25:00,67.2,48.5,30.20,SSW,192,1.0,2.0,51,0.00,,---,0.00,VWS V14.01,2013-09-29 17:25:00,
2013-09-29 13:30:00,66.8,47.6,30.20,NNW,331,2.0,3.0,50,0.00,,---,0.00,VWS V14.01,2013-09-29 17:30:00,
2013-09-29 13:35:00,66.6,47.9,30.19,NW,325,0.0,3.0,51,0.00,,---,0.00,VWS V14.01,2013-09-29 17:35:00,
2013-09-29 13:40:00,66.7,48.5,30.19,SW,221,1.0,3.0,52,0.00,,---,0.00,VWS V14.01,2013-09-29 17:40:00,
2013-09-29 13:45:00,66.9,49.7,30.19,SW,234,0.0,1.0,54,0.00,,---,0.00,VWS V14.01,2013-09-29 17:45:00,
2013-09-29 13:50:00,67.1,48.9,30.19,NNW,337,1.0,5.0,52,0.00,,---,0.00,VWS V14.01,2013-09-29 17:50:00,
2013-09-29 13:55:00,67.4,50.7,30.19,South,171,0.0,4.0,55,0.00,,---,0.00,VWS V14.01,2013-09-29 17:55:00,
2013-09-29 14:00:00,67.6,49.9,30.18,East,100,0.0,2.0,53,0.00,,---,0.00,VWS V14.01,2013-09-29 18:00:00,
2013-09-29 14:05:00,67.7,51.5,30.18,ENE,67,0.0,3.0,56,0.00,,---,0.00,VWS V14.01,2013-09-29 18:05:00,
2013-09-29 14:10:00,68.0,51.7,30.18,SSW,194,2.0,2.0,56,0.00,,---,0.00,VWS V14.01,2013-09-29 18:10:00,
2013-09-29 14:15:00,67.9,50.7,30.18,SSE,148,0.0,3.0,54,0.00,,---,0.00,VWS V14.01,2013-09-29 18:15:00,
2013-09-29 14:20:00,67.7,50.0,30.17,NNE,24,3.0,4.0,53,0.00,,---,0.00,VWS V14.01,2013-09-29 18:20:00,
2013-09-29 14:25:00,67.7,48.9,30.17,ESE,109,0.0,3.0,51,0.00,,---,0.00,VWS V14.01,2013-09-29 18:25:00,
2013-09-29 14:30:00,67.7,48.9,30.17,WSW,242,0.0,2.0,51,0.00,,---,0.00,VWS V14.01,2013-09-29 18:30:00,
2013-09-29 14:35:00,67.7,49.5,30.17,SW,235,0.0,2.0,52,0.00,,---,0.00,VWS V14.01,2013-09-29 18:35:00,
2013-09-29 14:40:00,67.8,49.5,30.17,SE,135,0.0,2.0,52,0.00,,---,0.00,VWS V14.01,2013-09-29 18:40:00,
2013-09-29 14:45:00,67.8,49.0,30.17,ESE,121,0.0,3.0,51,0.00,,---,0.00,VWS V14.01,2013-09-29 18:45:00,
2013-09-29 14:50:00,67.9,50.2,30.17,ESE,122,0.0,2.0,53,0.00,,---,0.00,VWS V14.01,2013-09-29 18:50:00,
2013-09-29 14:55:00,67.9,51.2,30.16,East,86,1.0,2.0,55,0.00,,---,0.00,VWS V14.01,2013-09-29 18:55:00,
2013-09-29 15:00:00,67.7,51.0,30.16,South,186,2.0,3.0,55,0.00,,---,0.00,VWS V14.01,2013-09-29 19:00:00,
2013-09-29 15:05:00,67.7,51.5,30.16,NE,40,1.0,3.0,56,0.00,,---,0.00,VWS V14.01,2013-09-29 19:05:00,
2013-09-29 15:10:00,67.6,52.3,30.16,NE,46,0.0,1.0,58,0.00,,---,0.00,VWS V14.01,2013-09-29 19:10:00,
2013-09-29 15:15:00,67.6,53.7,30.16,NNE,21,0.0,2.0,61,0.00,,---,0.00,VWS V14.01,2013-09-29 19:15:00,
2013-09-29 15:20:00,67.6,52.8,30.16,NW,318,0.0,3.0,59,0.00,,---,0.00,VWS V14.01,2013-09-29 19:20:00,
2013-09-29 15:25:00,67.7,53.3,30.15,NNE,30,0.0,2.0,60,0.00,,---,0.00,VWS V14.01,2013-09-29 19:25:00,
2013-09-29 15:30:00,67.5,53.6,30.16,NW,321,0.0,3.0,61,0.00,,---,0.00,VWS V14.01,2013-09-29 19:30:00,
2013-09-29 15:35:00,67.5,53.1,30.15,SE,146,0.0,2.0,60,0.00,,---,0.00,VWS V14.01,2013-09-29 19:35:00,
2013-09-29 15:40:00,67.4,52.6,30.16,NW,306,1.0,3.0,59,0.00,,---,0.00,VWS V14.01,2013-09-29 19:40:00,
2013-09-29 15:45:00,67.2,51.9,30.16,SW,233,1.0,4.0,58,0.00,,---,0.00,VWS V14.01,2013-09-29 19:45:00,
2013-09-29 15:50:00,66.9,52.1,30.16,SW,233,0.0,4.0,59,0.00,,---,0.00,VWS V14.01,2013-09-29 19:50:00,
2013-09-29 15:55:00,66.8,52.5,30.15,SSE,159,0.0,3.0,60,0.00,,---,0.00,VWS V14.01,2013-09-29 19:55:00,
2013-09-29 16:00:00,66.7,51.9,30.15,North,354,1.0,3.0,59,0.00,,---,0.00,VWS V14.01,2013-09-29 20:00:00,
2013-09-29 16:05:00,66.6,52.8,30.15,WNW,294,0.0,2.0,61,0.00,,---,0.00,VWS V14.01,2013-09-29 20:05:00,
2013-09-29 16:10:00,66.4,52.6,30.15,SSW,212,1.0,4.0,61,0.00,,---,0.00,VWS V14.01,2013-09-29 20:10:00,
2013-09-29 16:15:00,66.2,52.8,30.15,ENE,62,0.0,2.0,62,0.00,,---,0.00,VWS V14.01,2013-09-29 20:15:00,
2013-09-29 16:20:00,65.6,52.2,30.15,SSE,156,1.0,2.0,62,0.00,,---,0.00,VWS V14.01,2013-09-29 20:20:00,
2013-09-29 16:25:00,65.0,52.1,30.15,SSE,156,0.0,1.0,63,0.00,,---,0.00,VWS V14.01,2013-09-29 20:25:00,
2013-09-29 16:30:00,64.6,51.7,30.15,NNW,339,0.0,2.0,63,0.00,,---,0.00,VWS V14.01,2013-09-29 20:30:00,
2013-09-29 16:35:00,64.3,52.3,30.15,NE,49,0.0,3.0,65,0.00,,---,0.00,VWS V14.01,2013-09-29 20:35:00,
2013-09-29 16:40:00,63.8,51.4,30.15,East,96,1.0,2.0,64,0.00,,---,0.00,VWS V14.01,2013-09-29 20:40:00,
2013-09-29 16:45:00,63.4,51.9,30.15,East,96,0.0,1.0,66,0.00,,---,0.00,VWS V14.01,2013-09-29 20:45:00,
2013-09-29 16:50:00,63.0,51.9,30.15,East,96,0.0,1.0,67,0.00,,---,0.00,VWS V14.01,2013-09-29 20:50:00,
2013-09-29 16:55:00,62.5,51.8,30.15,South,178,0.0,2.0,68,0.00,,---,0.00,VWS V14.01,2013-09-29 20:55:00,
2013-09-29 17:00:00,62.1,51.8,30.15,South,178,0.0,1.0,69,0.00,,---,0.00,VWS V14.01,2013-09-29 21:00:00,
2013-09-29 17:05:00,61.8,51.9,30.15,South,178,0.0,1.0,70,0.00,,---,0.00,VWS V14.01,2013-09-29 21:05:00,
2013-09-29 17:10:00,61.4,51.5,30.15,South,178,0.0,1.0,70,0.00,,---,0.00,VWS V14.01,2013-09-29 21:10:00,
2013-09-29 17:15:00,61.0,51.5,30.15,SW,215,0.0,2.0,71,0.00,,---,0.00,VWS V14.01,2013-09-29 21:15:00,
2013-09-29 17:20:00,60.5,51.1,30.15,WNW,283,0.0,3.0,71,0.00,,---,0.00,VWS V14.01,2013-09-29 21:20:00,
2013-09-29 17:25:00,60.2,51.2,30.15,WNW,302,0.0,1.0,72,0.00,,---,0.00,VWS V14.01,2013-09-29 21:25:00,
2013-09-29 17:30:00,59.9,51.2,30.16,WNW,302,0.0,1.0,73,0.00,,---,0.00,VWS V14.01,2013-09-29 21:30:00,
2013-09-29 17:35:00,59.5,50.8,30.15,SE,130,0.0,1.0,73,0.00,,---,0.00,VWS V14.01,2013-09-29 21:35:00,
2013-09-29 17:40:00,59.2,50.6,30.15,SSE,150,0.0,1.0,73,0.00,,---,0.00,VWS V14.01,2013-09-29 21:40:00,
2013-09-29 17:45:00,58.9,50.6,30.15,SSE,150,0.0,1.0,74,0.00,,---,0.00,VWS V14.01,2013-09-29 21:45:00,
2013-09-29 17:50:00,58.6,50.7,30.16,SSE,150,0.0,0.0,75,0.00,,---,0.00,VWS V14.01,2013-09-29 21:50:00,
2013-09-29 17:55:00,58.4,50.5,30.15,NW,313,0.0,2.0,75,0.00,,---,0.00,VWS V14.01,2013-09-29 21:55:00,
2013-09-29 18:00:00,58.1,50.6,30.16,NW,314,0.0,1.0,76,0.00,,---,0.00,VWS V14.01,2013-09-29 22:00:00,
2013-09-29 18:05:00,57.8,50.7,30.16,NW,314,0.0,0.0,77,0.00,,---,0.00,VWS V14.01,2013-09-29 22:05:00,
2013-09-29 18:10:00,57.5,50.4,30.16,East,91,0.0,2.0,77,0.00,,---,0.00,VWS V14.01,2013-09-29 22:10:00,
2013-09-29 18:15:00,57.2,50.1,30.15,East,91,0.0,0.0,77,0.00,,---,0.00,VWS V14.01,2013-09-29 22:15:00,
2013-09-29 18:20:00,56.8,49.7,30.15,East,91,0.0,1.0,77,0.00,,---,0.00,VWS V14.01,2013-09-29 22:20:00,
2013-09-29 18:25:00,56.4,49.6,30.15,East,91,0.0,0.0,78,0.00,,---,0.00,VWS V14.01,2013-09-29 22:25:00,
2013-09-29 18:30:00,56.0,49.6,30.15,East,91,0.0,0.0,79,0.00,,---,0.00,VWS V14.01,2013-09-29 22:30:00,
2013-09-29 18:35:00,55.6,49.2,30.15,East,91,0.0,0.0,79,0.00,,---,0.00,VWS V14.01,2013-09-29 22:35:00,
2013-09-29 18:40:00,55.2,49.2,30.15,East,91,0.0,0.0,80,0.00,,---,0.00,VWS V14.01,2013-09-29 22:40:00,
2013-09-29 18:45:00,54.8,49.1,30.15,East,91,0.0,0.0,81,0.00,,---,0.00,VWS V14.01,2013-09-29 22:45:00,
2013-09-29 18:50:00,54.4,49.0,30.15,East,91,0.0,0.0,82,0.00,,---,0.00,VWS V14.01,2013-09-29 22:50:00,
2013-09-29 18:55:00,54.0,49.0,30.15,East,91,0.0,0.0,83,0.00,,---,0.00,VWS V14.01,2013-09-29 22:55:00,
2013-09-29 19:00:00,53.6,48.9,30.15,East,91,0.0,0.0,84,0.00,,---,0.00,VWS V14.01,2013-09-29 23:00:00,
2013-09-29 19:05:00,53.2,48.5,30.15,East,91,0.0,0.0,84,0.00,,---,0.00,VWS V14.01,2013-09-29 23:05:00,
2013-09-29 19:10:00,52.8,48.4,30.15,East,91,0.0,0.0,85,0.00,,---,0.00,VWS V14.01,2013-09-29 23:10:00,
2013-09-29 19:15:00,52.4,48.3,30.15,East,91,0.0,0.0,86,0.00,,---,0.00,VWS V14.01,2013-09-29 23:15:00,
2013-09-29 19:20:00,52.1,48.4,30.15,East,91,0.0,0.0,87,0.00,,---,0.00,VWS V14.01,2013-09-29 23:20:00,
2013-09-29 19:25:00,51.8,48.1,30.15,East,91,0.0,0.0,87,0.00,,---,0.00,VWS V14.01,2013-09-29 23:25:00,
2013-09-29 19:30:00,51.5,48.1,30.15,East,91,0.0,0.0,88,0.00,,---,0.00,VWS V14.01,2013-09-29 23:30:00,
2013-09-29 19:35:00,51.3,48.2,30.15,East,91,0.0,0.0,89,0.00,,---,0.00,VWS V14.01,2013-09-29 23:35:00,
2013-09-29 19:40:00,51.1,48.0,30.16,East,91,0.0,0.0,89,0.00,,---,0.00,VWS V14.01,2013-09-29 23:40:00,
2013-09-29 19:45:00,50.8,48.0,30.16,East,91,0.0,0.0,90,0.00,,---,0.00,VWS V14.01,2013-09-29 23:45:00,
2013-09-29 19:50:00,50.6,47.8,30.16,East,91,0.0,0.0,90,0.00,,---,0.00,VWS V14.01,2013-09-29 23:50:00,
2013-09-29 19:55:00,50.4,47.9,30.15,East,91,0.0,0.0,91,0.00,,---,0.00,VWS V14.01,2013-09-29 23:55:00,
2013-09-29 20:00:00,50.2,47.7,30.16,East,91,0.0,0.0,91,0.00,,---,0.00,VWS V14.01,2013-09-30 00:00:00,
2013-09-29 20:05:00,50.0,47.5,30.15,East,91,0.0,0.0,91,0.00,,---,0.00,VWS V14.01,2013-09-30 00:05:00,
2013-09-29 20:10:00,49.9,47.7,30.15,East,91,0.0,0.0,92,0.00,,---,0.00,VWS V14.01,2013-09-30 00:10:00,
2013-09-29 20:15:00,49.7,47.5,30.15,East,91,0.0,0.0,92,0.00,,---,0.00,VWS V14.01,2013-09-30 00:15:00,
2013-09-29 20:20:00,49.5,47.3,30.15,East,91,0.0,0.0,92,0.00,,---,0.00,VWS V14.01,2013-09-30 00:20:00,
2013-09-29 20:25:00,49.3,47.1,30.15,East,91,0.0,0.0,92,0.00,,---,0.00,VWS V14.01,2013-09-30 00:25:00,
2013-09-29 20:30:00,49.2,47.3,30.15,East,91,0.0,0.0,93,0.00,,---,0.00,VWS V14.01,2013-09-30 00:30:00,
2013-09-29 20:35:00,49.0,47.1,30.15,East,91,0.0,0.0,93,0.00,,---,0.00,VWS V14.01,2013-09-30 00:35:00,
2013-09-29 20:40:00,48.9,47.0,30.15,East,91,0.0,0.0,93,0.00,,---,0.00,VWS V14.01,2013-09-30 00:40:00,
2013-09-29 20:45:00,48.8,46.9,30.15,East,91,0.0,0.0,93,0.00,,---,0.00,VWS V14.01,2013-09-30 00:45:00,
2013-09-29 20:50:00,48.7,46.8,30.14,East,91,0.0,0.0,93,0.00,,---,0.00,VWS V14.01,2013-09-30 00:50:00,
2013-09-29 20:55:00,48.6,46.7,30.14,East,91,0.0,0.0,93,0.00,,---,0.00,VWS V14.01,2013-09-30 00:55:00,
2013-09-29 21:00:00,48.5,46.6,30.14,East,91,0.0,0.0,93,0.00,,---,0.00,VWS V14.01,2013-09-30 01:00:00,
2013-09-29 21:05:00,48.2,46.3,30.14,East,91,0.0,0.0,93,0.00,,---,0.00,VWS V14.01,2013-09-30 01:05:00,
2013-09-29 21:10:00,48.2,46.6,30.14,East,91,0.0,0.0,94,0.00,,---,0.00,VWS V14.01,2013-09-30 01:10:00,
2013-09-29 21:15:00,48.2,46.6,30.14,East,91,0.0,0.0,94,0.00,,---,0.00,VWS V14.01,2013-09-30 01:15:00,
2013-09-29 21:20:00,48.1,46.5,30.14,East,91,0.0,0.0,94,0.00,,---,0.00,VWS V14.01,2013-09-30 01:20:00,
2013-09-29 21:25:00,48.0,46.4,30.14,East,91,0.0,0.0,94,0.00,,---,0.00,VWS V14.01,2013-09-30 01:25:00,
2013-09-29 21:30:00,47.8,46.2,30.14,East,91,0.0,0.0,94,0.00,,---,0.00,VWS V14.01,2013-09-30 01:30:00,
2013-09-29 21:35:00,47.6,46.0,30.14,East,91,0.0,0.0,94,0.00,,---,0.00,VWS V14.01,2013-09-30 01:35:00,
2013-09-29 21:40:00,47.4,45.8,30.14,East,91,0.0,0.0,94,0.00,,---,0.00,VWS V14.01,2013-09-30 01:40:00,
2013-09-29 21:45:00,47.2,45.6,30.14,East,91,0.0,0.0,94,0.00,,---,0.00,VWS V14.01,2013-09-30 01:45:00,
2013-09-29 21:50:00,47.0,45.4,30.14,East,91,0.0,0.0,94,0.00,,---,0.00,VWS V14.01,2013-09-30 01:50:00,
2013-09-29 21:55:00,46.8,45.2,30.14,East,91,0.0,0.0,94,0.00,,---,0.00,VWS V14.01,2013-09-30 01:55:00,
2013-09-29 22:00:00,46.6,45.0,30.14,East,91,0.0,0.0,94,0.00,,---,0.00,VWS V14.01,2013-09-30 02:00:00,
2013-09-29 22:05:00,46.4,44.8,30.14,East,91,0.0,0.0,94,0.00,,---,0.00,VWS V14.01,2013-09-30 02:05:00,
2013-09-29 22:10:00,46.2,44.6,30.14,East,91,0.0,0.0,94,0.00,,---,0.00,VWS V14.01,2013-09-30 02:10:00,
2013-09-29 22:15:00,46.0,44.4,30.14,East,91,0.0,0.0,94,0.00,,---,0.00,VWS V14.01,2013-09-30 02:15:00,
2013-09-29 22:20:00,45.8,44.2,30.14,East,91,0.0,0.0,94,0.00,,---,0.00,VWS V14.01,2013-09-30 02:20:00,
2013-09-29 22:25:00,45.7,44.1,30.14,East,91,0.0,0.0,94,0.00,,---,0.00,VWS V14.01,2013-09-30 02:25:00,
2013-09-29 22:30:00,45.5,43.9,30.14,East,91,0.0,0.0,94,0.00,,---,0.00,VWS V14.01,2013-09-30 02:30:00,
2013-09-29 22:35:00,45.5,43.9,30.14,East,91,0.0,0.0,94,0.00,,---,0.00,VWS V14.01,2013-09-30 02:35:00,
2013-09-29 22:40:00,45.3,43.7,30.14,East,91,0.0,0.0,94,0.00,,---,0.00,VWS V14.01,2013-09-30 02:40:00,
2013-09-29 22:45:00,45.1,43.5,30.14,East,91,0.0,0.0,94,0.00,,---,0.00,VWS V14.01,2013-09-30 02:45:00,
2013-09-29 22:50:00,45.1,43.8,30.14,East,91,0.0,0.0,95,0.00,,---,0.00,VWS V14.01,2013-09-30 02:50:00,
2013-09-29 22:55:00,45.0,43.7,30.14,East,91,0.0,0.0,95,0.00,,---,0.00,VWS V14.01,2013-09-30 02:55:00,
2013-09-29 23:00:00,44.8,43.5,30.14,East,91,0.0,0.0,95,0.00,,---,0.00,VWS V14.01,2013-09-30 03:00:00,
2013-09-29 23:05:00,44.6,43.3,30.14,East,91,0.0,0.0,95,0.00,,---,0.00,VWS V14.01,2013-09-30 03:05:00,
2013-09-29 23:10:00,44.4,43.1,30.14,East,91,0.0,0.0,95,0.00,,---,0.00,VWS V14.01,2013-09-30 03:10:00,
2013-09-29 23:15:00,44.3,43.0,30.14,East,91,0.0,0.0,95,0.00,,---,0.00,VWS V14.01,2013-09-30 03:15:00,
2013-09-29 23:20:00,44.1,42.8,30.14,East,91,0.0,0.0,95,0.00,,---,0.00,VWS V14.01,2013-09-30 03:20:00,
2013-09-29 23:25:00,43.9,42.6,30.14,East,91,0.0,0.0,95,0.00,,---,0.00,VWS V14.01,2013-09-30 03:25:00,
2013-09-29 23:30:00,43.8,42.5,30.15,East,91,0.0,0.0,95,0.00,,---,0.00,VWS V14.01,2013-09-30 03:30:00,
2013-09-29 23:35:00,43.8,42.5,30.14,East,91,0.0,0.0,95,0.00,,---,0.00,VWS V14.01,2013-09-30 03:35:00,
2013-09-29 23:40:00,43.9,42.6,30.15,East,91,0.0,0.0,95,0.00,,---,0.00,VWS V14.01,2013-09-30 03:40:00,
2013-09-29 23:45:00,44.2,43.1,30.15,East,91,0.0,0.0,96,0.00,,---,0.00,VWS V14.01,2013-09-30 03:45:00,
2013-09-29 23:50:00,44.7,43.6,30.14,East,91,0.0,0.0,96,0.00,,---,0.00,VWS V14.01,2013-09-30 03:50:00,
2013-09-29 23:55:00,45.0,43.9,30.14,East,91,0.0,0.0,96,0.00,,---,0.00,VWS V14.01,2013-09-30 03:55:00,